TimePDT,TemperatureF,Dew PointF,Humidity,Sea Level PressureIn,VisibilityMPH,Wind Direction,Wind SpeedMPH,Gust SpeedMPH,PrecipitationIn,Events,Conditions,WindDirDegrees,DateUTC
12:15 AM,59.0,57.2,94,29.91,10.0,Calm,Calm,-,N/A,,Overcast,0,2013-09-02 07:15:00
12:35 AM,59.0,57.2,94,29.91,10.0,Calm,Calm,-,N/A,,Overcast,0,2013-09-02 07:35:00
12:55 AM,59.0,57.2,94,29.91,10.0,Calm,Calm,-,N/A,,Overcast,0,2013-09-02 07:55:00
1:15 AM,59.0,57.2,94,29.91,10.0,Calm,Calm,-,N/A,,Overcast,0,2013-09-02 08:15:00
1:35 AM,59.0,57.2,94,29.91,10.0,Calm,Calm,-,N/A,,Overcast,0,2013-09-02 08:35:00
1:55 AM,59.0,57.2,94,29.90,10.0,Calm,Calm,-,N/A,,Overcast,0,2013-09-02 08:55:00
2:15 AM,57.2,55.4,94,29.90,10.0,Calm,Calm,-,N/A,,Overcast,0,2013-09-02 09:15:00
2:35 AM,57.2,55.4,94,29.91,10.0,Calm,Calm,-,N/A,,Overcast,0,2013-09-02 09:35:00
2:55 AM,55.4,55.4,100,29.91,10.0,Calm,Calm,-,N/A,,Overcast,0,2013-09-02 09:55:00
3:15 AM,57.2,55.4,94,29.91,10.0,Calm,Calm,-,N/A,,Overcast,0,2013-09-02 10:15:00
3:35 AM,59.0,55.4,88,29.90,10.0,Calm,Calm,-,N/A,,Overcast,0,2013-09-02 10:35:00
3:55 AM,57.2,55.4,94,29.90,10.0,Calm,Calm,-,N/A,,Overcast,0,2013-09-02 10:55:00
4:15 AM,55.4,55.4,100,29.90,10.0,Calm,Calm,-,N/A,,Overcast,0,2013-09-02 11:15:00
4:35 AM,57.2,55.4,94,29.90,10.0,Calm,Calm,-,N/A,,Overcast,0,2013-09-02 11:35:00
4:55 AM,57.2,55.4,94,29.90,10.0,Calm,Calm,-,N/A,,Overcast,0,2013-09-02 11:55:00
5:15 AM,55.4,55.4,100,29.90,10.0,Calm,Calm,-,N/A,,Overcast,0,2013-09-02 12:15:00
5:35 AM,55.4,55.4,100,29.90,10.0,Calm,Calm,-,N/A,,Overcast,0,2013-09-02 12:35:00
5:55 AM,55.4,55.4,100,29.90,10.0,Calm,Calm,-,N/A,,Overcast,0,2013-09-02 12:55:00
6:15 AM,57.2,55.4,94,29.90,10.0,Calm,Calm,-,N/A,,Overcast,0,2013-09-02 13:15:00
6:35 AM,55.4,55.4,100,29.91,10.0,Calm,Calm,-,N/A,,Mostly Cloudy,0,2013-09-02 13:35:00
6:55 AM,55.4,55.4,100,29.91,10.0,Calm,Calm,-,N/A,,Overcast,0,2013-09-02 13:55:00
7:15 AM,55.4,55.4,100,29.91,10.0,Calm,Calm,-,N/A,,Overcast,0,2013-09-02 14:15:00
7:35 AM,59.0,57.2,94,29.92,10.0,Calm,Calm,-,N/A,,Overcast,0,2013-09-02 14:35:00
7:55 AM,60.8,57.2,88,29.92,10.0,Calm,Calm,-,N/A,,Overcast,0,2013-09-02 14:55:00
8:15 AM,62.6,57.2,82,29.92,10.0,Calm,Calm,-,N/A,,Overcast,0,2013-09-02 15:15:00
8:35 AM,66.2,57.2,73,29.91,10.0,Calm,Calm,-,N/A,,Overcast,0,2013-09-02 15:35:00
8:55 AM,66.2,57.2,73,29.91,10.0,Calm,Calm,-,N/A,,Mostly Cloudy,0,2013-09-02 15:55:00
9:15 AM,68.0,55.4,64,29.92,10.0,Calm,Calm,-,N/A,,Mostly Cloudy,0,2013-09-02 16:15:00
9:35 AM,71.6,55.4,57,29.91,10.0,Calm,Calm,-,N/A,,Overcast,0,2013-09-02 16:35:00
9:55 AM,71.6,53.6,53,29.91,10.0,Calm,Calm,-,N/A,,Overcast,0,2013-09-02 16:55:00
10:15 AM,73.4,53.6,50,29.91,10.0,Calm,Calm,-,N/A,,Overcast,0,2013-09-02 17:15:00
10:35 AM,75.2,53.6,47,29.91,10.0,Calm,Calm,-,N/A,,Overcast,0,2013-09-02 17:35:00
10:55 AM,75.2,53.6,47,29.91,10.0,Calm,Calm,-,N/A,,Overcast,0,2013-09-02 17:55:00
11:15 AM,77.0,53.6,44,29.91,10.0,Calm,Calm,-,N/A,,Overcast,0,2013-09-02 18:15:00
11:35 AM,77.0,53.6,44,29.90,10.0,Calm,Calm,-,N/A,,Overcast,0,2013-09-02 18:35:00
11:55 AM,77.0,53.6,44,29.90,10.0,Calm,Calm,-,N/A,,Overcast,0,2013-09-02 18:55:00
12:15 PM,77.0,55.4,47,29.90,10.0,Calm,Calm,-,N/A,,Overcast,0,2013-09-02 19:15:00
12:35 PM,78.8,55.4,44,29.90,10.0,Calm,Calm,-,N/A,,Overcast,0,2013-09-02 19:35:00
12:55 PM,77.0,55.4,47,29.90,10.0,Calm,Calm,-,N/A,,Overcast,0,2013-09-02 19:55:00
1:15 PM,78.8,55.4,44,29.90,10.0,Calm,Calm,-,N/A,,Overcast,0,2013-09-02 20:15:00
1:35 PM,80.6,57.2,45,29.90,10.0,Calm,Calm,-,N/A,,Overcast,0,2013-09-02 20:35:00
1:55 PM,78.8,57.2,47,29.90,10.0,NNW,3.5,-,N/A,,Mostly Cloudy,330,2013-09-02 20:55:00
2:15 PM,80.6,57.2,45,29.90,10.0,NNW,3.5,-,N/A,,Overcast,340,2013-09-02 21:15:00
2:35 PM,77.0,55.4,47,29.90,10.0,Calm,Calm,-,N/A,,Mostly Cloudy,0,2013-09-02 21:35:00
2:55 PM,78.8,55.4,44,29.89,10.0,Calm,Calm,-,N/A,,Overcast,0,2013-09-02 21:55:00
3:15 PM,78.8,57.2,47,29.89,10.0,North,3.5,-,N/A,,Overcast,350,2013-09-02 22:15:00
3:35 PM,77.0,57.2,50,29.89,10.0,Calm,Calm,-,N/A,,Mostly Cloudy,0,2013-09-02 22:35:00
3:55 PM,77.0,57.2,50,29.89,10.0,Calm,Calm,-,N/A,,Overcast,0,2013-09-02 22:55:00
4:15 PM,77.0,57.2,50,29.89,10.0,Calm,Calm,-,N/A,,Overcast,0,2013-09-02 23:15:00
4:35 PM,77.0,57.2,50,29.90,10.0,Calm,Calm,-,N/A,,Mostly Cloudy,0,2013-09-02 23:35:00
4:55 PM,75.2,57.2,53,29.90,10.0,NW,4.6,-,N/A,,Overcast,320,2013-09-02 23:55:00
5:15 PM,77.0,57.2,50,29.90,10.0,NW,5.8,-,N/A,,Overcast,320,2013-09-03 00:15:00
5:35 PM,77.0,59.0,54,29.91,10.0,Calm,Calm,-,N/A,,Overcast,0,2013-09-03 00:35:00
5:55 PM,75.2,59.0,57,29.91,10.0,Calm,Calm,-,N/A,,Overcast,0,2013-09-03 00:55:00
6:15 PM,75.2,57.2,53,29.91,10.0,Calm,Calm,-,N/A,,Overcast,0,2013-09-03 01:15:00
6:35 PM,73.4,59.0,61,29.91,10.0,Calm,Calm,-,N/A,,Overcast,0,2013-09-03 01:35:00
6:55 PM,73.4,59.0,61,29.91,10.0,Calm,Calm,-,N/A,,Overcast,0,2013-09-03 01:55:00
7:15 PM,73.4,59.0,61,29.91,10.0,Calm,Calm,-,N/A,,Overcast,0,2013-09-03 02:15:00
7:35 PM,71.6,57.2,60,29.91,10.0,Calm,Calm,-,N/A,,Overcast,0,2013-09-03 02:35:00
7:55 PM,69.8,59.0,68,29.92,10.0,Calm,Calm,-,N/A,,Mostly Cloudy,0,2013-09-03 02:55:00
8:15 PM,68.0,59.0,73,29.92,10.0,Calm,Calm,-,N/A,,Overcast,0,2013-09-03 03:15:00
8:35 PM,64.4,59.0,83,29.92,10.0,Calm,Calm,-,N/A,,Overcast,0,2013-09-03 03:35:00
8:55 PM,62.6,59.0,88,29.93,10.0,Calm,Calm,-,N/A,,Overcast,0,2013-09-03 03:55:00
9:15 PM,62.6,59.0,88,29.94,10.0,Calm,Calm,-,N/A,,Overcast,0,2013-09-03 04:15:00
9:35 PM,62.6,57.2,82,29.95,10.0,Calm,Calm,-,N/A,,Overcast,0,2013-09-03 04:35:00
9:55 PM,60.8,59.0,94,29.95,10.0,Calm,Calm,-,N/A,,Overcast,0,2013-09-03 04:55:00
10:15 PM,60.8,57.2,88,29.95,10.0,Calm,Calm,-,N/A,,Overcast,0,2013-09-03 05:15:00
10:35 PM,60.8,59.0,94,29.96,10.0,Calm,Calm,-,N/A,,Mostly Cloudy,0,2013-09-03 05:35:00
10:55 PM,60.8,59.0,94,29.96,10.0,Calm,Calm,-,N/A,,Overcast,0,2013-09-03 05:55:00
11:15 PM,62.6,59.0,88,29.96,10.0,Calm,Calm,-,N/A,,Overcast,0,2013-09-03 06:15:00
11:35 PM,62.6,59.0,88,29.97,9.0,Calm,Calm,-,N/A,Rain,Light Rain,0,2013-09-03 06:35:00
11:55 PM,60.8,60.8,100,29.97,10.0,Calm,Calm,-,N/A,,Overcast,0,2013-09-03 06:55:00